Location: Kershaw
(34.5481°N, 80.5823°W)
Time: 08:09:35
(UTC+00:00)

Explorer 7 - Pass Details

Date: 07 October 2022
Orbit: 481 x 665 km, 50.3° (Epoch: 28 November)

Event Time Altitude Azimuth Distance (km) Brightness Sun altitude
Rises 21:29:47 0° 304° (NW) 2,916 11.1 16.9°
Reaches altitude 10° 21:32:16 10° 297° (WNW) 1,977 10.4 16.4°
Maximum altitude 21:36:30 40° 228° (SW) 876 9.0 15.6°
Drops below altitude 10° 21:40:29 10° 158° (SSE) 1,857 9.5 14.8°
Sets 21:42:45 0° 151° (SSE) 2,716 10.2 14.3°
